DateTimeUTC,F1_A11,F1_S11,BsB_S11,BsG_S11,BsR_S11,BbsB_S11,BbsG_S11,BbsR_S11,BaB_A11,BaG_A11,BaR_A11,Tu_S11,T_S11,Uu_S11,U_S11,P_S11,T1_A11
2021-02-18T14:00:00Z,00000200,21000000,,,,,,,-000.01,-000.35,-000.06,17.8,24.0,,00.0,0631.8,31.0
2021-02-18T14:01:00Z,00000200,21000000,,,,,,,-000.28,0000.19,-000.09,17.8,24.0,,00.0,0631.8,31.0
2021-02-18T14:02:00Z,00000200,21000000,,,,,,,0000.24,0000.07,-000.03,17.8,24.0,,00.0,0631.8,31.0
2021-02-18T14:03:00Z,00000200,61000000,,,,,,,-000.11,-000.20,-000.02,17.8,24.0,,00.0,0631.8,31.0
2021-02-18T14:04:00Z,00000200,41000000,0000.08,0000.08,0000.02,-000.46,0000.19,0000.47,0000.10,-000.26,0000.33,17.7,23.8,00.1,00.0,0632.7,31.0
2021-02-18T14:05:00Z,00000200,01000000,-000.28,0000.39,0000.03,0000.07,0000.12,0000.20,0000.22,0000.48,-000.06,17.7,23.7,00.0,00.0,0632.7,31.0
2021-02-18T14:06:00Z,00000200,01000000,0000.69,0000.27,-000.03,0000.44,0000.35,0000.18,0000.27,0000.14,0000.21,17.7,23.7,00.1,00.0,0632.6,31.0
2021-02-18T14:07:00Z,00000200,01000000,-000.04,-000.16,-000.05,0000.50,0000.26,0000.08,-000.06,-000.03,0000.08,17.8,23.7,00.1,00.1,0632.6,31.0
2021-02-18T14:08:00Z,00000200,01000000,0000.18,0000.07,0000.01,-000.10,0000.03,-000.06,-000.07,0000.02,0000.24,17.9,23.8,00.1,00.1,0632.6,31.1
2021-02-18T14:09:00Z,00000200,01000000,0000.22,-000.04,0000.05,0000.20,0000.13,0000.08,0000.22,0000.45,-000.09,18.0,23.8,00.1,00.1,0632.6,31.1
2021-02-18T14:10:00Z,00000200,01000000,-000.21,-000.20,-000.27,0000.05,-000.00,0000.01,-000.07,-000.40,-000.29,18.0,23.8,00.1,00.1,0632.5,31.1
2021-02-18T14:11:00Z,00000200,01000000,0000.32,-000.04,-000.17,0000.39,0000.05,0000.23,0000.04,0000.13,0000.26,18.0,23.8,00.1,00.0,0632.6,31.1
2021-02-18T14:12:00Z,00000200,01000000,-000.16,0000.27,-000.06,-000.08,-000.09,0000.15,0000.13,-000.01,-000.20,18.1,23.8,00.1,00.0,0632.5,31.0
2021-02-18T14:13:00Z,00000200,01000000,-000.20,-000.12,-000.29,0000.15,0000.06,0000.07,-000.26,-000.01,0000.17,18.0,23.8,00.0,00.0,0632.5,31.0
2021-02-18T14:14:00Z,00000200,01000000,0000.52,0000.26,0000.07,-000.66,0000.09,-000.10,0000.06,0000.17,-000.22,18.0,23.8,00.1,00.1,0632.5,31.0
2021-02-18T14:15:00Z,00000200,01000000,0000.65,-000.05,0000.08,-000.34,0000.34,0000.21,0000.01,-000.09,0000.21,17.9,23.8,00.1,00.1,0632.4,31.0
2021-02-18T14:16:00Z,00000200,01000000,-000.27,-000.13,0000.05,0000.31,0000.25,-000.07,-000.07,-000.25,0000.17,17.9,23.8,00.1,00.1,0632.6,31.0
2021-02-18T14:17:00Z,00000200,01000000,0000.60,0000.20,-000.05,0000.42,0000.10,0000.15,0000.05,0000.09,-000.08,17.8,23.7,00.1,00.1,0632.5,31.0
2021-02-18T14:18:00Z,00000200,01000000,-000.49,-000.09,0000.00,0000.08,0000.13,0000.37,0000.16,0000.19,-000.14,17.8,23.7,00.1,00.1,0632.6,31.0
2021-02-18T14:19:00Z,00000200,01000000,0000.62,0000.07,-000.24,0000.34,0000.21,0000.04,-000.24,-000.10,0000.15,17.7,23.7,00.1,00.1,0632.5,31.0
2021-02-18T14:20:00Z,00000200,01000000,-000.02,0000.19,-000.12,-000.01,0000.06,0000.18,0000.22,-000.23,-000.22,17.7,23.7,00.1,00.1,0632.6,31.0
2021-02-18T14:21:00Z,00000200,01000000,0000.54,-000.03,-000.03,0000.10,0000.26,0000.30,0000.17,0000.35,0000.24,17.7,23.7,00.1,00.1,0632.6,31.0
2021-02-18T14:22:00Z,00000200,01000000,0000.12,-000.02,0000.11,-000.21,0000.41,-000.15,0000.11,0000.12,0000.25,17.8,23.7,00.1,00.1,0632.5,31.0
2021-02-18T14:23:00Z,00000200,01000000,0000.32,0000.19,0000.03,0000.28,0000.26,0000.21,0000.20,0000.29,0000.07,17.9,23.7,00.1,00.1,0632.4,31.0
2021-02-18T14:24:00Z,00000200,01000000,-000.23,-000.09,-000.06,-000.03,0000.29,-000.09,-000.46,0000.00,-000.22,18.0,23.8,00.1,00.1,0632.5,31.1
2021-02-18T14:25:00Z,00000200,01000000,-000.39,0000.14,-000.04,0000.23,0000.21,0000.07,0000.45,-000.26,0000.09,18.0,23.8,00.1,00.1,0632.4,31.1
2021-02-18T14:26:00Z,00000200,01000000,0000.44,-000.06,-000.05,0000.38,0000.16,-000.15,-000.48,0000.06,-000.35,18.0,23.8,00.1,00.1,0632.5,31.1
2021-02-18T14:27:00Z,00000200,01000000,0000.09,-000.05,-000.13,0000.16,0000.07,-000.26,0000.27,-000.07,0000.21,18.0,23.8,00.1,00.1,0632.4,31.0
2021-02-18T14:28:00Z,00000200,01000000,0000.20,-000.07,-000.08,0000.42,0000.16,-000.03,-000.30,0000.08,-000.05,17.9,23.8,00.1,00.1,0632.4,31.0
2021-02-18T14:29:00Z,00000200,01000000,-000.09,0000.31,-000.23,-000.23,0000.23,0000.06,0000.23,-000.32,0000.06,17.9,23.8,00.1,00.1,0632.3,31.0
2021-02-18T14:30:00Z,00000200,01000000,-000.48,0000.00,-000.08,-000.02,0000.01,-000.00,0000.09,0000.21,-000.15,17.8,23.7,00.1,00.1,0632.4,31.0
2021-02-18T14:31:00Z,00000200,01000000,0000.02,0000.12,0000.32,0000.35,0000.10,0000.17,-000.09,-000.01,0000.30,17.8,23.7,00.1,00.1,0632.4,31.0
2021-02-18T14:32:00Z,00000200,01000000,0000.64,0000.27,0000.04,0000.01,0000.12,0000.04,0000.26,0000.19,-000.07,17.7,23.7,00.0,00.0,0632.3,31.0
2021-02-18T14:33:00Z,00000200,01000000,-000.33,-000.08,-000.32,0000.48,-000.16,-000.11,-000.12,-000.02,-000.40,17.7,23.7,00.1,00.0,0632.4,31.0
2021-02-18T14:34:00Z,00000200,01000000,0000.55,0000.17,-000.31,-000.44,0000.11,-000.12,0000.05,-000.09,0000.06,17.6,23.6,00.1,00.1,0632.3,31.0
2021-02-18T14:35:00Z,00000200,01000000,-000.02,0000.08,-000.32,0000.31,0000.42,-000.15,0000.18,-000.10,0000.23,17.6,23.6,00.1,00.1,0632.3,31.0
2021-02-18T14:36:00Z,00000200,01000000,0000.60,0000.15,-000.06,-000.45,-000.03,0000.38,0000.16,0000.13,0000.27,17.7,23.6,00.1,00.1,0632.3,31.0
2021-02-18T14:37:00Z,00000200,01000000,0000.58,-000.30,-000.11,0000.11,0000.09,0000.07,-000.22,0000.28,0000.06,17.7,23.6,00.1,00.1,0632.2,31.0
2021-02-18T14:38:00Z,00000200,01000000,-000.26,-000.15,-000.15,0000.05,0000.08,0000.07,0000.42,-000.25,0000.26,17.8,23.7,00.1,00.1,0632.2,31.0
2021-02-18T14:39:00Z,00000200,01000000,0000.87,0000.07,-000.13,-000.08,0000.14,0000.05,-000.08,0000.35,-000.07,17.9,23.7,00.1,00.1,0632.2,31.0
2021-02-18T14:40:00Z,00000200,01000000,-000.11,-000.22,-000.05,0000.18,0000.26,0000.02,-000.27,-000.20,-000.24,18.0,23.8,00.1,00.1,0632.3,31.1
2021-02-18T14:41:00Z,00000200,01000000,-000.06,0000.08,0000.21,0000.73,0000.35,0000.04,-000.13,0000.22,0000.02,18.0,23.8,00.1,00.1,0632.2,31.1
2021-02-18T14:42:00Z,00000200,01000000,-000.33,0000.13,-000.27,0000.33,-000.00,0000.18,-000.10,-000.13,0000.14,17.9,23.8,00.1,00.1,0632.2,31.0
2021-02-18T14:43:00Z,00000200,01000000,-000.27,0000.24,-000.08,0000.00,0000.03,-000.02,0000.09,-000.18,-000.03,17.9,23.8,00.1,00.1,0632.1,31.0
2021-02-18T14:44:00Z,00000200,01000000,0000.46,0000.26,-000.20,0000.12,0000.11,0000.06,0000.17,0000.04,-000.43,17.8,23.7,00.1,00.1,0632.2,31.0
2021-02-18T14:45:00Z,00000200,01000000,0000.16,-000.05,0000.05,-000.08,0000.14,0000.08,-000.44,-000.19,0000.21,17.8,23.7,00.1,00.1,0632.2,31.0
2021-02-18T14:46:00Z,00000200,01000000,0000.56,-000.09,0000.01,0000.16,0000.12,0000.02,0000.36,0000.37,-000.12,17.8,23.7,00.1,00.1,0632.1,31.0
2021-02-18T14:47:00Z,00000200,01000000,0000.42,0000.26,-000.06,-000.21,0000.33,-000.01,-000.04,-000.26,-000.12,17.7,23.6,00.1,00.1,0632.1,31.0
2021-02-18T14:48:00Z,00000200,01000000,-000.27,0000.05,-000.16,0000.46,0000.23,-000.15,-000.05,0000.17,0000.18,17.7,23.6,00.1,00.1,0632.1,31.0
2021-02-18T14:49:00Z,00000200,01000000,0000.35,-000.01,0000.01,0000.15,0000.15,-000.00,0000.32,-000.30,0000.27,17.6,23.6,00.2,00.1,0632.1,31.0
2021-02-18T14:50:00Z,00000200,01000000,0000.09,-000.13,0000.04,0000.45,0000.21,0000.23,-000.12,0000.53,0000.08,17.6,23.6,00.1,00.1,0632.0,31.0
2021-02-18T14:51:00Z,00000200,01000000,-000.11,-000.25,0000.02,0000.26,0000.07,0000.09,0000.10,-000.38,-000.16,17.6,23.6,00.1,00.1,0632.1,31.0
2021-02-18T14:52:00Z,00000200,01000000,-000.31,0000.25,-000.22,0000.27,0000.26,-000.26,0000.34,0000.55,0000.57,17.7,23.6,00.1,00.1,0631.9,31.0
2021-02-18T14:53:00Z,00000200,01000000,0000.14,0000.30,-000.13,-000.29,0000.31,0000.21,0000.01,0000.17,-000.05,17.8,23.7,00.1,00.1,0632.0,31.0
2021-02-18T14:54:00Z,00000200,01000000,-000.03,-000.05,-000.11,0000.65,0000.23,0000.08,0000.20,0000.30,0000.32,17.9,23.7,00.1,00.1,0632.0,31.0
2021-02-18T14:55:00Z,00000200,01000000,0000.62,0000.37,-000.03,0000.16,-000.01,0000.14,-000.10,-000.06,-000.33,18.0,23.7,00.2,00.1,0631.9,31.1
2021-02-18T14:56:00Z,00000200,01000000,0000.18,0000.13,-000.18,0000.21,0000.06,0000.20,0000.13,-000.30,-000.15,18.0,23.8,00.2,00.1,0631.8,31.1
2021-02-18T14:57:00Z,00000200,41000000,,,,,,,-000.37,0000.12,0000.29,18.1,23.8,,00.0,0631.9,31.1
2021-02-18T14:58:00Z,00000200,61000000,,,,,,,0000.18,-000.10,-000.33,17.8,23.9,00.0,00.0,0631.1,31.1
2021-02-18T14:59:00Z,00000200,21000000,,,,,,,-000.02,-000.14,-000.13,17.8,24.0,,00.0,0631.0,31.0
